RH
100 100 100 100 100 100 97 93 77 45 20 15 13 12 12 12 12 12 12 13 13 13 14 13 14 14 15 18 18 16 16 18 21 35 51 54 60 60 91 99 100 100 56
100 100 100 100 100 100 96 77 52 25 14 12 12 12 13 14 14 14 14 14 13 13 13 10 8 9 12 13 14 13 11 10 8 7 12 21 32 46 54 62 95 100 100
100 100 100 100 100 94 74 47 29 14 12 12 12 13 14 14 12 10 8 8 6 5 5 5 5 5 4 4 4 5 5 5 5 5 7 8 12 15 21 28 43 79 100
100 100 100 100 99 83 48 32 16 12 11 12 13 12 10 8 6 5 5 5 5 5 5 4 4 3 3 3 3 3 3 3 3 4 4 5 6 8 9 12 19 28 65
100 98 100 100 83 60 31 20 12 10 11 12 11 8 6 5 5 5 4 5 4 4 4 3 3 3 3 3 3 3 2 2 2 2 2 3 4 6 6 9 13 23 36
97 92 95 93 74 32 18 13 10 10 11 10 7 6 6 5 5 4 4 4 3 3 3 2 2 3 3 3 3 3 3 3 2 2 2 3 3 4 5 7 9 10 18
79 88 88 74 48 16 12 10 10 11 10 7 6 5 5 4 4 4 3 3 2 2 3 2 2 2 2 2 2 2 2 2 2 2 2 3 3 4 5 5 6 8 11
86 79 75 53 23 12 10 10 10 10 7 6 5 5 5 4 4 3 3 3 3 2 2 2 2 2 2 2 2 2 2 2 2 2 2 3 3 3 3 4 5 6 8
81 78 49 33 16 11 10 10 10 8 6 5 5 4 4 3 3 3 3 2 2 2 2 2 2 2 2 2 2 2 2 2 2 2 2 2 3 3 3 3 4 6 7
65 54 32 23 12 10 10 11 9 6 6 5 5 4 3 3 3 3 2 2 2 2 2 2 2 2 2 2 2 2 2 2 2 2 2 2 2 3 3 3 3 4 5
63 35 25 13 10 9 10 9 7 6 6 5 4 3 3 4 3 2 2 2 2 2 2 2 2 2 1 1 1 2 1 1 1 2 2 2 2 2 3 3 3 4 4
44 26 15 10 8 9 10 7 6 6 6 4 3 4 4 3 2 3 2 2 2 2 2 2 2 2 1 1 1 1 1 1 2 2 1 2 2 2 2 3 3 3 4
27 17 10 8 9 9 8 6 6 6 5 3 3 4 4 3 3 3 3 2 2 2 2 2 2 2 2 2 2 2 2 2 2 1 2 2 2 2 2 2 2 2 3
17 10 8 8 9 7 6 6 6 6 4 3 4 4 3 3 3 3 3 3 2 2 2 2 2 2 2 2 2 2 2 2 2 1 1 2 2 2 2 2 2 3 3
9 8 8 9 8 6 6 6 6 4 4 4 4 4 3 3 4 3 3 3 3 3 2 2 2 2 2 2 2 2 2 2 2 2 1 2 2 2 2 2 2 2 3
8 8 8 8 7 6 6 6 5 4 4 5 4 3 3 4 4 4 4 3 3 3 3 2 2 2 2 2 2 2 2 2 2 2 1 1 2 2 2 2 2 2 3
7 8 8 6 6 7 6 5 4 4 5 5 4 4 4 4 4 4 4 4 4 4 3 3 3 2 2 2 2 2 2 2 2 2 0 1 2 2 2 2 2 2 3
8 8 6 6 7 6 5 4 4 5 6 6 4 4 4 5 5 5 4 5 5 5 4 3 4 3 3 3 2 2 2 2 2 2 2 2 2 2 2 2 2 2 2
8 6 6 6 6 5 4 4 4 5 6 6 4 5 5 5 5 6 5 5 6 5 4 4 4 4 4 4 4 3 2 2 2 2 2 2 2 2 2 2 2 2 2
6 6 6 6 5 4 4 4 5 5 6 5 4 5 5 6 5 6 6 6 7 5 5 5 4 4 4 4 5 4 3 3 2 2 2 2 2 2 2 2 2 2 3
6 6 6 5 4 4 4 5 5 5 5 4 4 5 6 6 6 8 9 7 9 8 9 9 6 6 6 7 6 5 6 5 4 3 3 2 2 2 2 2 2 2 3
6 5 5 4 3 4 5 6 5 5 5 4 4 5 6 6 6 8 10 8 9 12 13 12 10 9 9 8 7 6 7 6 6 6 5 3 3 3 3 3 3 3 3
5 4 4 3 3 4 5 6 5 5 5 4 4 5 6 7 7 8 11 12 12 12 16 14 13 13 12 11 10 10 7 6 6 6 7 6 6 5 4 3 4 4 4
4 3 3 3 4 4 5 5 5 4 4 4 4 5 5 6 7 8 10 14 13 14 17 16 14 14 15 14 14 12 11 11 10 10 10 10 10 9 7 6 5 5 4
3 2 3 3 4 4 4 4 4 4 4 4 4 5 5 6 7 7 9 12 14 15 15 16 15 14 15 15 16 18 17 15 14 14 14 12 12 13 12 13 11 9 8
2 2 3 3 4 4 4 4 4 4 4 4 5 5 5 6 7 7 8 10 12 13 13 13 14 14 14 15 16 18 19 17 15 15 17 16 16 15 15 14 15 15 15
Wind_Speed
100 103 106 111 114 111 105 101 93 82 76 71 67 67 68 70 73 76 77 79 80 82 86 92 99 108 117 124 132 139 141 146 148 160 168 163 157 148 145 137 131 121 120
108 110 113 116 119 113 108 98 87 80 73 69 67 67 68 70 71 74 77 79 80 81 83 85 85 92 96 103 110 116 120 123 123 122 129 152 169 165 162 151 148 139 127
113 114 117 120 122 110 103 92 83 77 72 69 67 67 68 69 70 71 71 72 74 76 79 81 83 87 87 91 95 99 102 103 103 106 111 113 125 141 155 163 158 150 140
117 118 119 123 115 109 96 86 81 75 70 69 67 66 65 64 64 65 68 68 70 72 75 76 77 77 78 80 82 84 87 88 88 92 98 100 106 113 114 124 139 153 149
118 117 119 121 112 103 90 83 79 74 70 68 66 64 62 61 63 64 64 65 67 71 72 73 74 73 73 74 74 77 78 77 76 79 83 89 92 100 101 106 117 133 147
120 120 118 117 109 95 87 81 76 71 68 67 64 61 61 62 63 62 62 62 64 64 65 66 66 66 66 67 67 70 72 72 71 72 75 79 83 91 95 98 105 111 126
124 120 120 112 101 91 84 79 75 70 68 65 63 60 60 61 60 58 58 57 57 57 57 58 58 58 59 60 60 62 64 66 67 67 69 73 81 87 95 96 100 104 107
128 126 116 105 93 88 81 76 72 69 66 64 61 60 59 58 55 54 53 51 50 51 52 53 54 54 54 55 55 57 59 61 63 64 63 72 78 87 97 97 95 102 102
127 123 107 96 92 85 79 74 71 67 65 61 59 56 56 54 51 49 47 46 47 47 47 47 47 48 48 47 49 51 53 56 59 61 63 71 78 84 91 95 94 98 99
123 113 100 92 89 81 75 72 69 66 62 59 57 54 51 49 45 44 43 43 42 42 41 41 40 40 41 41 41 43 47 50 54 58 62 67 75 80 87 91 91 95 96
119 104 94 90 83 77 72 70 67 62 60 56 54 50 46 44 41 40 39 39 39 38 38 37 39 40 38 37 38 41 43 44 47 53 58 63 69 76 81 87 87 90 93
105 95 91 84 78 72 68 67 64 58 57 54 50 46 43 41 40 37 36 36 35 35 34 34 36 37 36 35 35 36 38 38 42 48 52 57 62 68 76 83 83 84 89
96 91 85 78 72 69 66 64 60 57 53 50 47 43 40 38 36 35 33 33 33 32 33 33 32 32 32 31 29 31 33 35 39 43 46 49 55 62 69 75 75 76 82
91 85 78 73 70 67 64 60 57 54 50 47 43 40 38 36 33 32 31 30 30 31 29 30 31 29 26 25 26 27 30 33 37 40 42 45 48 53 59 63 69 71 74
84 78 73 70 66 65 61 57 55 50 47 44 40 37 35 31 31 29 28 27 27 25 24 25 26 25 23 22 22 23 27 30 32 35 37 40 43 45 49 56 62 64 69
77 73 70 67 65 62 58 55 50 48 45 41 37 34 32 28 28 27 26 24 21 20 22 19 18 20 20 18 19 21 23 26 28 30 33 34 36 39 42 48 53 53 59
72 70 67 64 61 59 55 50 47 45 41 37 34 31 29 26 25 25 25 21 19 19 16 15 15 16 16 16 16 17 20 23 25 27 29 31 33 35 37 42 45 49 53
69 66 64 61 57 56 50 47 45 42 38 33 30 28 26 24 24 23 22 20 18 17 15 13 12 11 11 12 13 15 17 19 22 23 25 27 30 33 36 37 43 48 51
66 63 61 57 55 52 48 45 41 38 35 30 28 25 23 23 22 22 20 18 18 17 15 13 13 11 10 10 10 10 13 15 18 20 22 24 27 31 34 38 41 44 48
63 62 57 54 50 49 45 41 38 35 31 28 25 23 21 21 22 20 21 17 18 16 12 12 12 11 11 9 6 7 8 10 14 17 21 23 25 28 32 35 39 43 47
60 56 55 50 48 45 40 38 35 32 28 25 23 21 19 20 20 19 20 18 17 16 13 12 13 13 11 9 9 6 6 8 9 12 17 21 24 28 31 35 39 42 45
56 53 50 47 43 41 38 35 32 29 26 24 21 20 18 20 20 19 20 19 16 15 14 13 12 12 11 10 8 8 7 6 7 10 12 15 20 25 28 33 38 41 44
53 50 47 42 40 39 36 33 30 26 24 22 20 19 18 19 20 19 19 20 19 14 15 15 12 12 12 11 9 8 10 8 9 11 11 14 17 21 26 30 34 39 43
49 46 42 40 39 37 34 31 28 24 22 21 20 18 18 18 20 20 20 21 20 19 18 17 15 13 12 12 12 11 11 10 11 11 12 13 14 18 22 27 31 35 40
46 43 40 39 37 35 32 29 25 22 20 20 20 19 18 19 19 21 21 21 21 20 21 20 18 15 15 15 13 13 14 15 15 14 17 18 19 20 22 25 28 33 38
43 40 39 38 36 33 30 26 23 22 19 18 19 19 19 19 19 20 21 22 22 22 22 22 21 20 19 18 17 18 19 19 19 18 19 21 22 25 26 27 29 32 36
Wind_Direction
322 323 324 326 326 324 322 320 315 309 303 296 289 284 280 276 275 272 270 269 267 262 257 253 252 252 252 252 253 254 253 252 252 247 246 249 248 244 243 242 242 239 242
324 323 324 325 324 323 321 317 313 307 302 295 290 287 284 281 278 275 272 270 269 266 262 258 255 252 251 251 251 252 253 253 254 255 251 246 247 248 246 242 243 241 239
323 323 323 324 324 321 320 315 312 307 302 298 293 290 286 283 280 278 275 271 268 266 264 263 261 258 256 254 252 252 251 252 252 252 251 250 247 245 245 246 242 241 238
322 322 323 324 324 321 318 315 311 307 303 299 295 292 289 286 284 280 276 273 272 270 267 266 264 262 261 260 259 257 255 252 249 248 248 247 245 244 242 242 242 239 238
322 322 323 323 323 320 318 314 310 307 304 300 297 295 293 290 285 281 280 277 273 271 270 269 268 267 266 264 262 260 259 255 251 246 244 243 242 242 240 237 237 236 233
324 323 322 323 322 320 317 313 310 306 304 302 300 299 296 292 289 287 283 280 277 275 272 270 268 266 264 262 259 258 256 255 253 248 243 240 237 239 236 234 234 231 230
325 323 323 323 320 319 316 314 311 308 306 305 304 301 298 295 292 289 285 282 278 275 272 271 269 266 262 260 257 255 253 251 248 245 241 238 234 234 236 231 230 231 229
324 323 323 321 319 318 315 314 311 309 308 308 306 303 301 296 294 290 287 283 279 276 273 271 269 267 265 263 259 255 251 248 244 243 238 235 231 231 233 232 228 229 227
323 322 321 319 319 317 316 313 311 311 310 309 307 306 300 297 294 290 287 285 282 280 277 275 272 270 266 263 258 256 250 245 242 239 235 232 229 229 232 233 229 227 225
322 322 320 319 318 317 316 313 312 313 312 311 309 306 301 298 295 293 290 287 283 280 278 276 274 270 266 263 260 254 249 245 241 237 233 231 230 228 229 231 231 227 224
322 320 319 318 317 316 314 313 314 315 313 312 309 305 304 301 298 295 293 289 286 285 285 284 280 277 272 265 259 254 249 244 239 238 235 231 230 228 229 231 230 228 224
319 319 319 318 316 315 314 314 314 316 314 312 309 309 306 304 303 300 295 291 289 288 287 285 281 278 272 266 261 258 253 248 242 239 236 233 230 229 228 230 229 227 226
318 318 318 317 316 315 315 315 315 316 314 311 311 310 308 307 305 301 298 295 295 293 293 290 284 279 275 272 266 257 251 244 241 239 237 235 232 230 230 233 232 229 225
317 317 317 316 315 316 315 316 316 316 313 311 312 312 311 309 306 302 300 298 296 297 294 290 287 283 276 270 262 254 247 242 240 237 234 233 231 230 229 231 232 229 226
316 317 316 315 316 316 316 317 316 314 312 312 312 312 311 309 305 303 300 298 297 294 293 290 287 285 282 275 264 252 246 242 239 239 237 234 233 229 227 226 229 228 225
315 316 315 316 317 316 316 316 315 313 312 312 312 311 309 308 304 302 298 300 294 292 294 293 289 288 281 270 263 253 247 244 241 236 235 234 233 230 225 223 226 226 225
315 315 315 317 317 314 316 315 313 313 313 312 311 309 308 306 303 299 299 300 295 297 296 300 297 296 283 271 259 250 246 242 240 238 235 232 229 227 223 218 218 222 219
313 315 316 317 315 313 315 314 312 313 313 311 309 306 306 303 300 294 299 297 293 296 302 301 299 301 303 297 280 263 251 242 239 236 233 232 228 224 218 216 216 216 215
313 315 316 315 315 314 315 313 312 313 312 310 306 302 301 298 296 293 294 292 290 294 304 297 293 295 304 306 304 288 268 251 239 234 230 226 223 218 216 213 212 213 216
314 316 315 315 315 314 314 313 312 313 310 307 303 299 297 294 292 288 291 291 293 301 308 300 304 303 304 301 299 287 277 265 247 233 228 223 218 217 217 213 211 210 212
315 315 314 315 314 314 315 314 313 311 307 304 300 295 291 288 286 283 286 290 291 303 311 304 297 307 301 302 300 289 281 265 254 242 232 224 219 213 212 212 210 211 213
314 314 314 314 313 313 315 313 311 309 305 300 296 290 286 283 279 276 279 284 286 292 297 306 288 290 294 293 281 258 247 241 238 237 235 226 220 217 215 214 211 210 213
314 313 314 313 313 313 314 313 309 307 302 296 293 286 281 278 272 272 270 277 278 282 277 276 283 284 279 279 278 275 266 266 220 201 216 224 224 220 218 217 216 215 214
313 314 313 313 313 313 313 311 307 305 299 291 289 284 278 273 266 267 266 266 273 272 274 273 270 273 280 274 270 270 265 256 245 236 218 210 217 225 224 221 219 221 220
313 313 313 314 313 312 312 309 306 303 297 288 287 283 278 272 264 260 263 263 266 269 272 275 276 274 271 270 270 267 261 259 253 243 238 236 227 221 222 224 228 226 224
313 314 314 314 312 312 311 307 304 301 294 285 284 280 276 270 267 261 261 261 263 266 269 272 275 275 274 272 270 265 261 259 257 251 246 240 236 235 234 231 229 230 233